Date String (YYYY-MM-DD hh:mm:ss) UTC,Instrument flags,Ambient pressure (hPa),Sample flow (lpm),Bypass flow (lpm),Sample temperature (°C),Ambient temperature (°C),ASC tube jacket temperature (°C),LED temperature (°C),Box temperature (°C),Sample RH (%),Span deviation,Mass concentration (μg/m³),Mass concentration (μg/m³),Mass concentration (μg/m³)
DateTimeUTC,F1_M11,P_M11,Q1_M11,Q2_M11,T1_M11,T2_M11,T3_M11,T4_M11,T5_M11,U1_M11,ZSPAN_M11,X2_M11,X0_M11,X1_M11
2023-05-07 15:00:00,,0828.6,5.00,0.00,28.3,26.9,00.0,36.6,29.8,11.3,0000.0,0002.51,0006.45,0001.36
2023-05-07 15:01:00,,0828.5,5.00,0.00,28.3,26.9,00.0,36.6,29.9,12.6,0000.0,0002.50,0006.40,0001.37
2023-05-07 15:02:00,,0828.6,4.99,0.00,28.3,26.9,00.0,36.6,29.9,12.6,0000.0,0002.50,0006.50,0001.38
2023-05-07 15:03:00,,0828.5,5.00,0.00,28.3,26.9,00.0,36.6,29.9,12.9,0000.0,0002.53,0007.37,0001.39
2023-05-07 15:04:00,,0828.5,4.99,0.00,28.3,26.9,00.0,36.6,29.9,12.6,0000.0,0002.56,0007.10,0001.40
2023-05-07 15:05:00,,0828.5,5.00,0.00,28.3,26.9,00.0,36.6,29.9,11.9,0000.0,0002.57,0007.63,0001.40
2023-05-07 15:06:00,,0828.6,5.01,0.00,28.3,26.9,00.0,36.6,29.9,11.6,0000.0,0002.64,0007.84,0001.40
2023-05-07 15:07:00,,0828.5,5.01,0.00,28.4,26.9,00.0,36.6,29.9,11.8,0000.0,0002.58,0008.57,0001.40
2023-05-07 15:08:00,,0828.5,5.01,0.00,28.4,26.9,00.0,36.6,29.9,12.1,0000.0,0002.61,0008.22,0001.40
2023-05-07 15:09:00,,0828.5,4.99,0.00,28.4,27.0,00.0,36.6,30.0,12.8,0000.0,0002.67,0008.63,0001.38
2023-05-07 15:10:00,,0828.5,4.99,0.00,28.4,27.0,00.0,36.7,29.9,12.5,0000.0,0002.81,0008.96,0001.39
2023-05-07 15:11:00,,0828.5,4.99,0.00,28.4,27.0,00.0,36.7,30.0,12.5,0000.0,0002.95,0009.99,0001.42
2023-05-07 15:12:00,,0828.5,5.00,0.00,28.4,27.0,00.0,36.7,29.9,12.4,0000.0,0002.97,0010.82,0001.42
2023-05-07 15:13:00,,0828.5,5.00,0.00,28.4,27.0,00.0,36.7,29.9,12.2,0000.0,0002.97,0010.69,0001.42
2023-05-07 15:14:00,,0828.4,5.01,0.00,28.4,27.0,00.0,36.7,30.0,12.5,0000.0,0002.94,0010.13,0001.43
2023-05-07 15:15:00,,0828.4,5.01,0.00,28.4,27.0,00.0,36.7,30.0,12.5,0000.0,0002.93,0010.14,0001.43
2023-05-07 15:16:00,,0828.4,5.01,0.00,28.4,27.0,00.0,36.7,30.0,12.5,0000.0,0002.92,0010.15,0001.44
2023-05-07 15:17:00,,0828.4,5.00,0.00,28.4,27.0,00.0,36.7,30.0,12.6,0000.0,0002.92,0010.27,0001.44
2023-05-07 15:18:00,,0828.4,5.00,0.00,28.4,27.0,00.0,36.7,30.0,12.6,0000.0,0002.98,0009.61,0001.43
2023-05-07 15:19:00,,0828.4,5.00,0.00,28.5,27.0,00.0,36.7,30.0,12.5,0000.0,0002.95,0009.57,0001.43
2023-05-07 15:20:00,,0828.4,4.99,0.00,28.5,27.0,00.0,36.7,30.1,12.4,0000.0,0002.92,0009.54,0001.45
2023-05-07 15:21:00,,0828.4,5.00,0.00,28.5,27.0,00.0,36.8,30.0,12.4,0000.0,0002.85,0010.08,0001.46
2023-05-07 15:22:00,,0828.4,4.99,0.00,28.5,27.1,00.0,36.8,30.0,12.9,0000.0,0002.82,0010.01,0001.46
2023-05-07 15:23:00,,0828.4,5.01,0.00,28.5,27.1,00.0,36.8,30.1,12.5,0000.0,0002.89,0009.40,0001.47
2023-05-07 15:24:00,,0828.4,5.01,0.00,28.5,27.1,00.0,36.8,30.1,12.3,0000.0,0002.93,0009.46,0001.48
2023-05-07 15:25:00,,0828.4,5.01,0.00,28.5,27.1,00.0,36.8,30.0,12.2,0000.0,0003.01,0009.71,0001.48
2023-05-07 15:26:00,,0828.4,4.99,0.00,28.5,27.1,00.0,36.8,30.1,12.1,0000.0,0003.00,0009.67,0001.48
2023-05-07 15:27:00,,0828.4,4.99,0.00,28.5,27.1,00.0,36.8,30.1,11.9,0000.0,0002.98,0009.72,0001.47
2023-05-07 15:28:00,,0828.4,5.01,0.00,28.5,27.1,00.0,36.8,30.1,12.0,0000.0,0002.90,0009.26,0001.45
2023-05-07 15:29:00,,0828.4,5.01,0.00,28.5,27.1,00.0,36.8,30.1,11.6,0000.0,0002.83,0009.23,0001.45
2023-05-07 15:30:00,,0828.4,5.00,0.00,28.6,27.1,00.0,36.8,30.1,11.9,0000.0,0002.85,0009.67,0001.45
2023-05-07 15:31:00,,0828.4,4.99,0.00,28.6,27.2,00.0,36.8,30.2,12.0,0000.0,0002.87,0010.58,0001.44
2023-05-07 15:32:00,,0828.4,5.00,0.00,28.6,27.2,00.0,36.8,30.2,11.9,0000.0,0002.87,0009.90,0001.43
2023-05-07 15:33:00,,0828.4,5.00,0.00,28.6,27.2,00.0,36.9,30.1,12.0,0000.0,0002.80,0009.06,0001.41
2023-05-07 15:34:00,,0828.4,5.01,0.00,28.6,27.2,00.0,36.9,30.1,11.9,0000.0,0002.77,0008.74,0001.40
2023-05-07 15:35:00,,0828.4,5.01,0.00,28.6,27.2,00.0,36.9,30.2,11.9,0000.0,0002.79,0008.67,0001.40
2023-05-07 15:36:00,,0828.4,5.00,0.00,28.6,27.2,00.0,36.9,30.2,12.0,0000.0,0002.79,0008.51,0001.40
2023-05-07 15:37:00,,0828.3,5.00,0.00,28.6,27.3,00.0,36.9,30.2,12.2,0000.0,0002.91,0008.68,0001.41
2023-05-07 15:38:00,,0828.3,5.00,0.00,28.6,27.3,00.0,36.9,30.2,12.1,0000.0,0003.00,0008.71,0001.43
2023-05-07 15:39:00,,0828.3,5.01,0.00,28.7,27.3,00.0,36.9,30.2,11.6,0000.0,0003.01,0008.82,0001.42
2023-05-07 15:40:00,,0828.3,5.01,0.00,28.7,27.3,00.0,36.9,30.2,11.3,0000.0,0002.99,0008.69,0001.41
2023-05-07 15:41:00,,0828.3,5.00,0.00,28.7,27.3,00.0,36.9,30.2,11.5,0000.0,0002.96,0008.38,0001.40
2023-05-07 15:42:00,,0828.3,4.99,0.00,28.7,27.3,00.0,37.0,30.3,12.2,0000.0,0002.97,0007.21,0001.40
2023-05-07 15:43:00,,0828.2,5.00,0.00,28.7,27.3,00.0,37.0,30.2,12.1,0000.0,0002.99,0007.14,0001.40
2023-05-07 15:44:00,,0828.2,5.00,0.00,28.7,27.3,00.0,37.0,30.3,12.0,0000.0,0003.04,0007.24,0001.39
2023-05-07 15:45:00,,0828.2,5.00,0.00,28.7,27.4,00.0,37.0,30.3,11.9,0000.0,0003.00,0007.30,0001.38
2023-05-07 15:46:00,,0828.2,5.01,0.00,28.7,27.4,00.0,37.0,30.3,12.4,0000.0,0002.99,0007.35,0001.38
2023-05-07 15:47:00,,0828.2,5.01,0.00,28.8,27.4,00.0,37.0,30.3,12.2,0000.0,0002.97,0007.41,0001.38
2023-05-07 15:48:00,,0828.2,4.98,0.00,28.8,27.4,00.0,37.0,30.3,12.0,0000.0,0002.89,0007.29,0001.36
2023-05-07 15:49:00,,0828.2,5.00,0.00,28.8,27.4,00.0,37.0,30.3,12.2,0000.0,0002.88,0007.00,0001.36
2023-05-07 15:50:00,,0828.2,4.99,0.00,28.8,27.4,00.0,37.0,30.4,12.5,0000.0,0002.95,0007.67,0001.37
2023-05-07 15:51:00,,0828.3,5.02,0.00,28.8,27.5,00.0,37.1,30.3,12.7,0000.0,0003.09,0008.23,0001.40
2023-05-07 15:52:00,,0828.3,4.99,0.00,28.8,27.5,00.0,37.1,30.4,12.4,0000.0,0003.12,0008.87,0001.43
2023-05-07 15:53:00,,0828.3,4.99,0.00,28.8,27.5,00.0,37.1,30.4,12.4,0000.0,0003.14,0009.16,0001.47
2023-05-07 15:54:00,,0828.3,5.00,0.00,28.9,27.5,00.0,37.1,30.4,12.8,0000.0,0003.17,0009.29,0001.50
2023-05-07 15:55:00,,0828.3,5.00,0.00,28.9,27.5,00.0,37.1,30.4,12.7,0000.0,0003.17,0009.27,0001.54
2023-05-07 15:56:00,,0828.3,5.00,0.00,28.9,27.6,00.0,37.1,30.4,12.7,0000.0,0003.21,0009.31,0001.58
2023-05-07 15:57:00,,0828.3,5.00,0.00,28.9,27.6,00.0,37.1,30.4,12.4,0000.0,0003.23,0009.30,0001.61
2023-05-07 15:58:00,,0828.3,5.00,0.00,28.9,27.6,00.0,37.2,30.4,12.5,0000.0,0003.21,0009.14,0001.62
2023-05-07 15:59:00,,0828.3,5.00,0.00,28.9,27.6,00.0,37.2,30.5,12.2,0000.0,0003.17,0008.94,0001.65
